Regional Weather Roundup
Issued by NWS

Home | Current Version | Previous Version | Text Only | Print | Product List | Glossary Off
Versions: 1 2 3 4 5 6 7 8 9 10 11 12 13 14 15 16 17 18 19 20 21 22 23 24 25 26 27 28 29 30 31 32 33 34 35 36 37 38 39 40 41 42 43 44 45 46 47 48 49 50

821
ASUS45 KPSR 181210
RWRAZ

ARIZONA HOURLY REGIONAL WEATHER ROUNDUP
NATIONAL WEATHER SERVICE PHOENIX AZ
500 AM MST WED JAN 18 2017

NOTE: FAIR INDICATES FEW OR NO CLOUDS BELOW 12,000 FEET WITH NO
SIGNIFICANT WEATHER AND/OR OBSTRUCTIONS TO VISIBILITY.

AZZ001>003-036-181300-
NORTHWEST ARIZONA

CITY           SKY/WX    TMP DP  RH WIND       PRES   REMARKS
BULLHEAD CITY  CLEAR     43  30  61 CALM      30.15S
KINGMAN        CLEAR     31  26  82 SE5       30.13F WCI  26
6HR MIN TEMP:  30; 6HR MAX TEMP:  36;

$$

AZZ004>008-015-016-018-181300-
NORTH CENTRAL ARIZONA

CITY           SKY/WX    TMP DP  RH WIND       PRES   REMARKS
GRAND CANYON   CLEAR     19  17  92 CALM      30.14F
6HR MIN TEMP:  19; 6HR MAX TEMP:  25;

WILLIAMS       CLEAR     23  21  93 S7        30.13F WCI  15
PRESCOTT       CLEAR     28  26  92 CALM      30.14S
6HR MIN TEMP:  28; 6HR MAX TEMP:  34;

FLAGSTAFF      CLEAR     20  18  92 CALM      30.13F
6HR MIN TEMP:  20; 6HR MAX TEMP:  25;

PAYSON         CLEAR     37  30  75 CALM      30.16F
PAGE           CLEAR     31  24  75 CALM      30.14F
6HR MIN TEMP:  31; 6HR MAX TEMP:  36;

$$

AZZ009>014-017-181300-
NORTHEAST ARIZONA

CITY           SKY/WX    TMP DP  RH WIND       PRES   REMARKS
WINSLOW        PTCLDY    32  32 100 CALM      30.15F
6HR MIN TEMP:  30; 6HR MAX TEMP:  34;

SAINT JOHNS    CLOUDY    34  33  96 W7        30.14S WCI  28
6HR MIN TEMP:  29; 6HR MAX TEMP:  38;

SHOW LOW       CLEAR     27  27 100 SE3       30.15F
$$

AZZ023-181300-
GREATER PHOENIX AREA

CITY           SKY/WX    TMP DP  RH WIND       PRES   REMARKS
PHOENIX        CLEAR     47  42  83 E6        30.10S
6HR MIN TEMP:  47; 6HR MAX TEMP:  54;

BUCKEYE          N/A     39  39 100 N7        30.12S WCI  34
LUKE AFB       CLEAR     42  42  99 N5        30.10S
6HR MIN TEMP:  42; 6HR MAX TEMP:  49;

DEER VALLEY    CLEAR     43  40  89 CALM      30.10F
6HR MIN TEMP:  42; 6HR MAX TEMP:  48;

SCOTTSDALE     CLEAR     44  39  82 CALM      30.11F
6HR MIN TEMP:  44; 6HR MAX TEMP:  50;

MESA-GATEWAY   CLEAR     41  39  93 E3        30.12S
$$

AZZ027-028-181300-
SOUTHWEST MARICOPA COUNTY AND PINAL COUNTY

CITY           SKY/WX    TMP DP  RH WIND       PRES   REMARKS
CASA GRANDE    CLEAR     41  40  96 CALM      30.12S
6HR MIN TEMP:  41; 6HR MAX TEMP:  49; 6HR PCP: TRACE;

$$

AZZ503-504-507>509-181300-
SOUTHEAST ARIZONA

CITY           SKY/WX    TMP DP  RH WIND       PRES   REMARKS
TUCSON         CLEAR     44  40  85 SE8       30.13S
6HR MIN TEMP:  43; 6HR MAX TEMP:  53;

DAVIS-MONTHAN  CLEAR     41  41  99 SE9       30.12S
6HR MIN TEMP:  41; 6HR MAX TEMP:  51;

NOGALES        CLEAR     34  31  88 CALM      30.13S
6HR MIN TEMP:  33; 6HR MAX TEMP:  40;

SIERRA VISTA   CLEAR     36  32  86 SW7       30.14F WCI  31
6HR MIN TEMP:  36; 6HR MAX TEMP:  42;

DOUGLAS        CLEAR     33  32  96 NW5       30.14S WCI  29
6HR MIN TEMP:  32; 6HR MAX TEMP:  42;

SAFFORD        CLEAR     39  38  96 N3        30.11F
6HR MIN TEMP:  39; 6HR MAX TEMP:  46;

$$

AZZ020-021-025-026-031-181300-
SOUTHWEST ARIZONA

CITY           SKY/WX    TMP DP  RH WIND       PRES   REMARKS
YUMA           CLEAR     48  31  51 CALM      30.12S
6HR MIN TEMP:  45; 6HR MAX TEMP:  53;

$$

CAZ031-033-041-043-047-048-061-181300-
SOUTHERN CALIFORNIA

CITY           SKY/WX    TMP DP  RH WIND       PRES   REMARKS
DOWNTOWN L.A.  MOCLDY    49  45  86 CALM      30.15S
6HR MIN TEMP:  49; 6HR MAX TEMP:  54;

L.A. AIRPORT   MOCLDY    50  46  86 CALM      30.16S
6HR MIN TEMP:  49; 6HR MAX TEMP:  56;

SAN DIEGO      PTCLDY    52  45  77 CALM      30.18R
6HR MIN TEMP:  51; 6HR MAX TEMP:  56;

BURBANK        MOCLDY    44  36  73 CALM      30.15R
6HR MIN TEMP:  43; 6HR MAX TEMP:  51;

ONTARIO        MOCLDY    43  32  65 NE5       30.14F
6HR MIN TEMP:  41; 6HR MAX TEMP:  51;

RIVERSIDE      CLEAR     40  37  89 E5        30.15S
6HR MIN TEMP:  40; 6HR MAX TEMP:  50;

PALM SPRINGS   PTCLDY    46  35  65 NW3       30.14S
6HR MIN TEMP:  45; 6HR MAX TEMP:  53;

EL CENTRO NAS  CLEAR     42  36  79 W8        30.14S
6HR MIN TEMP:  42; 6HR MAX TEMP:  51;

IMPERIAL       CLEAR     44  36  73 W6        30.12S
6HR MIN TEMP:  43; 6HR MAX TEMP:  49;

BLYTHE         CLEAR     41  32  70 CALM      30.13F
6HR MIN TEMP:  41; 6HR MAX TEMP:  52;

NEEDLES        CLEAR     42  28  57 CALM      30.14S
6HR MIN TEMP:  42; 6HR MAX TEMP:  50;

$$

NVZ020-UTZ003-181300-
SOUTHERN NEVADA-UTAH

CITY           SKY/WX    TMP DP  RH WIND       PRES   REMARKS
LAS VEGAS      PTCLDY    38  24  57 SW3       30.13S
6HR MIN TEMP:  37; 6HR MAX TEMP:  44;

SALT LAKE CITY PTCLDY    20  16  84 CALM      30.20R
6HR MIN TEMP:  20; 6HR MAX TEMP:  23;

$$

NMZ009-TXZ055-181300-
NEW MEXICO-WEST TEXAS

CITY           SKY/WX    TMP DP  RH WIND       PRES   REMARKS
ALBUQUERQUE    CLOUDY    37  34  89 N5        30.13S WCI  33
6HR MIN TEMP:  34; 6HR MAX TEMP:  38;

EL PASO        PTCLDY    35  32  88 CALM      30.12F
6HR MIN TEMP:  35; 6HR MAX TEMP:  41;

$$


........................KEY........................
SKY/WX - SKY CONDITION/WEATHER
TMP    - TEMPERATURE IN FAHRENHEIT
DP     - DEW POINT IN FAHRENHEIT
RH     - RELATIVE HUMIDITY IN PERCENT
WIND   - DIRECTION AND SPEED IN MILES PER HOUR (MPH)
VRB    - VARIABLE WIND DIRECTION
PRES   - MEAN SEA LEVEL PRESSURE IN INCHES OF MERCURY
         F - FALLING PRESSURE   R - RISING PRESSURE
         S - STEADY PRESSURE
VSB    - VISIBILITY IN MILES
HX     - HEAT INDEX IN FAHRENHEIT
WCI    - WIND CHILL INDEX IN FAHRENHEIT
TC     - TEMPERATURE IN CELSIUS WHICH IS ALSO KNOWN AS
         TEMPERATURE IN CENTIGRADE
AFB    - AIR FORCE BASE
         LUKE AFB IS LUKE AIR FORCE BASE
         DAVIS-MONTHAN IS DAVIS-MONTHAN AIR FORCE BASE
NAS    - NAVAL AIR STATION
         EL CENTRO NAS IS EL CENTRO NAVAL AIR STATION
N/A    - NOT AVAILABLE





USA.gov is the U.S. government's official web portal to all federal, state and local government web resources and services.